When you browse on this site, cookies collect data to enhance your experience and personalize the content and advertising you see.
Visit our Privacy Policy to learn more. By continuing to use the site, you agree to this use of cookies and data.
EN

Hourly Weather Potik

Today, 13 July, Monday

Time Temperature Precipitation Wind Pressure Humidity
00:00 +9°C° 0 mm 1 mps 713 mmHg 95%
01:00 +8°C° 0 mm 1 mps 713 mmHg 96%
02:00 +8°C° 0 mm 1 mps 713 mmHg 96%
03:00 +8°C° 0 mm 1 mps 713 mmHg 96%
04:00 +8°C° 0 mm 1 mps 712 mmHg 96%
05:00 +7°C° 0 mm 1 mps 712 mmHg 97%
06:00 +8°C° 0.1 mm 2 mps 712 mmHg 93%
07:00 +10°C° 0.1 mm 2 mps 713 mmHg 89%
08:00 +11°C° 0 mm 3 mps 713 mmHg 84%
09:00 +13°C° 0.1 mm 3 mps 713 mmHg 76%
10:00 +14°C° 0.1 mm 3 mps 713 mmHg 67%
11:00 +15°C° 0.1 mm 4 mps 713 mmHg 59%
12:00 +15°C° 0.2 mm 4 mps 713 mmHg 60%
13:00 +15°C° 0.2 mm 4 mps 713 mmHg 60%
14:00 +17°C° 0.2 mm 4 mps 713 mmHg 61%
15:00 +15°C° 0.2 mm 4 mps 712 mmHg 64%
16:00 +15°C° 0.2 mm 4 mps 712 mmHg 67%
17:00 +15°C° 0.2 mm 4 mps 711 mmHg 69%
18:00 +14°C° 0.1 mm 3 mps 711 mmHg 76%
19:00 +13°C° 0.1 mm 2 mps 711 mmHg 82%
20:00 +12°C° 0.1 mm 1 mps 711 mmHg 89%
21:00 +11°C° 0 mm 1 mps 711 mmHg 91%
22:00 +10°C° 0 mm 1 mps 711 mmHg 92%
23:00 +9°C° 0 mm 1 mps 710 mmHg 94%

Tomorrow, 14 July, Tuesday

Time Temperature Precipitation Wind Pressure Humidity
00:00 +9°C° 0 mm 1 mps 711 mmHg 94%
01:00 +8°C° 0 mm 1 mps 711 mmHg 94%
02:00 +8°C° 0 mm 1 mps 711 mmHg 94%
03:00 +8°C° 0 mm 1 mps 710 mmHg 95%
04:00 +8°C° 0 mm 1 mps 710 mmHg 95%
05:00 +8°C° 0 mm 1 mps 710 mmHg 95%
06:00 +10°C° 0 mm 1 mps 710 mmHg 90%
07:00 +12°C° 0 mm 1 mps 710 mmHg 86%
08:00 +14°C° 0 mm 1 mps 711 mmHg 81%
09:00 +15°C° 0 mm 1 mps 711 mmHg 75%
10:00 +17°C° 0 mm 2 mps 711 mmHg 69%
11:00 +18°C° 0 mm 2 mps 710 mmHg 64%
12:00 +18°C° 0.2 mm 2 mps 710 mmHg 64%
13:00 +19°C° 0.2 mm 2 mps 710 mmHg 64%
14:00 +19°C° 0.2 mm 2 mps 710 mmHg 65%
15:00 +19°C° 0.2 mm 2 mps 709 mmHg 66%
16:00 +19°C° 0.2 mm 2 mps 709 mmHg 68%
17:00 +20°C° 0.2 mm 1 mps 709 mmHg 70%
18:00 +18°C° 0.2 mm 1 mps 709 mmHg 77%
19:00 +16°C° 0.2 mm 1 mps 709 mmHg 84%
20:00 +14°C° 0.2 mm 1 mps 708 mmHg 91%
21:00 +13°C° 0 mm 1 mps 708 mmHg 92%
22:00 +12°C° 0 mm 1 mps 708 mmHg 93%
23:00 +10°C° 0 mm 0 mps 708 mmHg 94%

Day after tomorrow, 15 July, Wednesday

Time Temperature Precipitation Wind Pressure Humidity
00:00 +10°C° 0 mm 0 mps 708 mmHg 94%
01:00 +10°C° 0 mm 0 mps 708 mmHg 94%
02:00 +10°C° 0 mm 0 mps 708 mmHg 94%
03:00 +9°C° 0 mm 0 mps 708 mmHg 94%
04:00 +10°C° 0 mm 1 mps 708 mmHg 94%
05:00 +10°C° 0 mm 1 mps 708 mmHg 94%
06:00 +12°C° 0 mm 1 mps 708 mmHg 90%
07:00 +13°C° 0 mm 0 mps 708 mmHg 86%
08:00 +15°C° 0 mm 0 mps 709 mmHg 82%
09:00 +19°C° 0 mm 1 mps 709 mmHg 73%
10:00 +21°C° 0 mm 1 mps 709 mmHg 65%
11:00 +23°C° 0 mm 1 mps 709 mmHg 56%
12:00 +23°C° 0.1 mm 1 mps 709 mmHg 57%
13:00 +23°C° 0.1 mm 1 mps 709 mmHg 58%
14:00 +23°C° 0.1 mm 2 mps 709 mmHg 58%
15:00 +21°C° 0.7 mm 2 mps 708 mmHg 65%
16:00 +20°C° 0.7 mm 2 mps 708 mmHg 73%
17:00 +20°C° 0.7 mm 2 mps 708 mmHg 80%
18:00 +19°C° 0.3 mm 1 mps 708 mmHg 83%
19:00 +18°C° 0.3 mm 1 mps 707 mmHg 85%
20:00 +16°C° 0.3 mm 1 mps 707 mmHg 87%
21:00 +15°C° 0 mm 1 mps 707 mmHg 89%
22:00 +14°C° 0 mm 1 mps 707 mmHg 90%
23:00 +13°C° 0 mm 2 mps 707 mmHg 91%

16 July, Thursday

Time Temperature Precipitation Wind Pressure Humidity
00:00 +13°C° 0 mm 2 mps 707 mmHg 91%
01:00 +13°C° 0 mm 2 mps 707 mmHg 92%
02:00 +12°C° 0 mm 2 mps 707 mmHg 92%
03:00 +12°C° 0 mm 2 mps 706 mmHg 91%
04:00 +12°C° 0 mm 2 mps 706 mmHg 91%
05:00 +12°C° 0 mm 1 mps 706 mmHg 91%
06:00 +14°C° 0 mm 1 mps 706 mmHg 87%
07:00 +16°C° 0 mm 1 mps 707 mmHg 83%
08:00 +18°C° 0 mm 1 mps 707 mmHg 79%
09:00 +19°C° 0.3 mm 1 mps 707 mmHg 75%
10:00 +19°C° 0.3 mm 2 mps 707 mmHg 71%
11:00 +21°C° 0.3 mm 2 mps 707 mmHg 67%
12:00 +21°C° 0.6 mm 2 mps 707 mmHg 70%
13:00 +21°C° 0.6 mm 2 mps 707 mmHg 73%
14:00 +20°C° 0.6 mm 2 mps 707 mmHg 75%
15:00 +20°C° 1 mm 2 mps 707 mmHg 79%
16:00 +19°C° 1 mm 2 mps 706 mmHg 83%
17:00 +19°C° 1 mm 2 mps 706 mmHg 86%
18:00 +18°C° 0.5 mm 2 mps 706 mmHg 89%
19:00 +18°C° 0.5 mm 1 mps 706 mmHg 92%
20:00 +15°C° 0.5 mm 1 mps 706 mmHg 95%
21:00 +15°C° 0 mm 1 mps 706 mmHg 95%
22:00 +14°C° 0 mm 1 mps 706 mmHg 95%
23:00 +14°C° 0 mm 1 mps 706 mmHg 95%

17 July, Friday

Time Temperature Precipitation Wind Pressure Humidity
00:00 +14°C° 0 mm 1 mps 706 mmHg 95%
01:00 +14°C° 0 mm 1 mps 707 mmHg 95%
02:00 +13°C° 0 mm 1 mps 707 mmHg 95%
03:00 +13°C° 0.1 mm 1 mps 707 mmHg 96%
04:00 +13°C° 0.1 mm 1 mps 707 mmHg 96%
05:00 +13°C° 0.1 mm 1 mps 707 mmHg 97%
06:00 +14°C° 0 mm 1 mps 707 mmHg 96%
07:00 +14°C° 0 mm 1 mps 707 mmHg 94%
08:00 +15°C° 0 mm 1 mps 707 mmHg 93%
09:00 +16°C° 0.1 mm 1 mps 708 mmHg 89%
10:00 +16°C° 0.1 mm 2 mps 708 mmHg 86%
11:00 +17°C° 0.1 mm 2 mps 708 mmHg 82%
12:00 +16°C° 0.3 mm 2 mps 708 mmHg 85%
13:00 +16°C° 0.3 mm 2 mps 707 mmHg 88%
14:00 +15°C° 0.3 mm 2 mps 707 mmHg 91%
15:00 +15°C° 0.3 mm 1 mps 707 mmHg 93%
16:00 +15°C° 0.3 mm 1 mps 707 mmHg 94%
17:00 +14°C° 0.3 mm 1 mps 707 mmHg 96%
18:00 +14°C° 0.2 mm 1 mps 707 mmHg 96%
19:00 +14°C° 0.2 mm 1 mps 707 mmHg 96%
20:00 +12°C° 0.2 mm 0 mps 707 mmHg 96%
21:00 +12°C° 0.1 mm 0 mps 707 mmHg 97%
22:00 +12°C° 0.1 mm 0 mps 707 mmHg 97%
23:00 +12°C° 0.1 mm 0 mps 707 mmHg 97%

18 July, Saturday

Time Temperature Precipitation Wind Pressure Humidity
00:00 +12°C° 0.1 mm 0 mps 707 mmHg 98%
01:00 +12°C° 0.1 mm 0 mps 707 mmHg 98%
02:00 +12°C° 0.1 mm 0 mps 707 mmHg 99%
03:00 +13°C° 0.1 mm 1 mps 707 mmHg 99%
04:00 +13°C° 0.1 mm 1 mps 707 mmHg 99%
05:00 +13°C° 0.1 mm 1 mps 707 mmHg 99%
06:00 +14°C° 0.1 mm 1 mps 707 mmHg 99%
07:00 +14°C° 0.1 mm 1 mps 707 mmHg 98%
08:00 +14°C° 0.1 mm 1 mps 707 mmHg 98%
09:00 +14°C° 0.8 mm 1 mps 707 mmHg 98%
10:00 +14°C° 0.8 mm 1 mps 707 mmHg 98%
11:00 +14°C° 0.8 mm 1 mps 707 mmHg 98%
12:00 +15°C° 0.7 mm 1 mps 707 mmHg 98%
13:00 +15°C° 0.7 mm 1 mps 707 mmHg 98%
14:00 +15°C° 0.7 mm 1 mps 707 mmHg 98%
15:00 +15°C° 0.4 mm 1 mps 707 mmHg 98%
16:00 +15°C° 0.4 mm 1 mps 707 mmHg 98%
17:00 +16°C° 0.4 mm 1 mps 707 mmHg 98%
18:00 +15°C° 0 mm 1 mps 707 mmHg 98%
19:00 +15°C° 0 mm 1 mps 707 mmHg 98%
20:00 +15°C° 0 mm 1 mps 707 mmHg 99%
21:00 +15°C° 0 mm 1 mps 707 mmHg 99%
22:00 +15°C° 0 mm 1 mps 707 mmHg 98%
23:00 +14°C° 0 mm 0 mps 707 mmHg 98%
Show more